Location: Bergnerzell
(49.1816°N, 10.2565°E)
Time: 06:27:29
(UTC+00:00)

IDEFIX/ARIANE 42P - Pass Details

Date: 15 August 2024
Orbit: 782 x 799 km, 98.5° (Epoch: 08 September)

Event Time Altitude Azimuth Distance (km) Brightness Sun altitude
Rises 23:43:56 0° 28° (NNE) 3,285 6.8 -27.0°
Reaches altitude 10° 23:47:07 10° 49° (NE) 2,353 5.6 -27.0°
Maximum altitude 23:50:26 17° 89° (E) 1,912 4.6 -26.9°
Enters shadow 23:51:22 16° 102° (ESE) 1,950 4.5 -26.9°
